Temperature
10 10 10 10 10 10 10 10 10 10 10 10 10 10 9 9 9 10 10 9 9 9 9 8 8 8 8 8 7 7 7 7 7 7 7 6 6 6 6 6 6 6 5
10 10 10 10 10 10 10 10 10 10 10 10 10 10 9 9 9 9 10 9 9 9 9 8 8 8 8 8 8 8 7 7 7 6 6 6 6 6 5 5 5 5 5
11 10 10 10 10 10 10 10 10 10 10 10 10 10 10 9 9 9 9 9 9 9 9 9 8 8 8 8 8 8 7 7 7 6 6 6 6 6 5 5 5 5 5
11 10 10 10 10 10 10 10 10 10 10 10 10 10 10 9 9 9 9 9 9 9 9 9 9 8 8 8 8 7 7 7 6 6 6 6 5 5 5 4 4 4 4
11 11 10 10 10 10 10 10 10 10 10 10 10 10 10 10 10 9 9 9 9 9 9 9 9 9 8 8 8 7 7 7 6 6 6 5 5 5 5 4 4 4 4
11 11 11 10 10 10 10 10 10 10 10 10 10 9 10 10 9 9 9 9 9 9 9 9 9 9 8 8 8 7 7 7 6 6 5 5 5 4 4 4 3 3 3
11 11 11 11 10 10 10 10 10 10 10 10 9 9 9 9 9 9 9 9 9 9 9 9 8 8 8 8 8 7 7 7 6 5 5 5 4 4 4 3 3 3 3
11 11 11 11 11 11 10 10 10 10 10 10 10 9 9 9 9 9 9 9 9 9 9 9 8 8 8 8 7 7 7 6 6 5 5 4 4 3 3 3 3 2 2
12 11 11 11 11 11 11 10 10 10 10 10 9 9 9 9 9 9 9 9 9 9 9 8 8 8 8 7 7 7 6 6 6 5 5 4 4 3 3 2 2 2 2
12 12 11 11 11 11 11 10 10 10 10 10 9 9 9 9 9 9 9 9 9 9 8 8 8 8 7 7 7 6 6 6 5 5 4 4 3 3 2 2 2 2 1
12 12 11 11 11 11 11 10 10 10 10 10 10 9 9 9 9 9 9 9 8 8 8 8 8 8 7 7 6 6 5 5 5 4 4 4 3 3 2 2 2 1 1
12 12 11 11 11 11 11 10 10 10 10 10 9 9 9 9 9 9 8 8 8 8 8 8 8 7 7 7 6 6 5 5 4 4 3 3 3 2 2 2 1 1 1
12 13 12 12 11 11 11 10 10 10 10 9 9 9 9 9 9 8 8 8 8 8 8 8 7 7 7 6 6 5 5 4 4 3 3 2 2 2 1 1 1 1 0
14 14 13 12 12 11 10 10 10 10 10 9 9 9 9 9 8 8 8 8 7 7 7 7 7 7 6 6 5 5 4 4 3 2 2 2 1 1 1 0 0 0 -0
13 13 13 12 11 11 10 10 10 10 9 9 9 9 9 8 8 8 8 7 7 6 6 6 6 6 5 5 4 4 3 3 2 2 1 1 1 0 0 -0 -0 -1 -1
12 13 12 12 11 11 10 10 10 9 9 9 9 9 8 8 8 8 7 7 7 6 6 6 6 5 5 4 4 3 3 2 2 1 1 0 0 -0 -1 -1 -1 -2 -2
12 12 12 12 11 10 10 10 9 9 9 9 9 8 8 8 8 7 7 7 6 6 6 5 5 5 4 3 3 2 2 1 1 1 0 -0 -1 -1 -1 -2 -2 -2 -3
12 12 11 11 11 10 10 9 9 9 9 8 8 8 8 8 7 7 7 7 6 6 5 5 5 4 4 3 2 2 1 1 0 -0 -1 -1 -1 -2 -2 -2 -3 -3 -3
11 11 11 10 10 10 10 9 9 9 8 8 8 8 8 7 7 7 7 6 6 5 5 4 4 3 3 2 2 1 1 0 -0 -1 -1 -2 -2 -2 -3 -3 -3 -4 -4
11 11 10 10 10 10 9 9 9 8 8 8 8 8 8 7 7 7 6 6 5 5 4 4 3 3 2 1 1 0 0 -0 -1 -1 -2 -2 -3 -3 -3 -4 -4 -4 -5
11 10 10 10 10 9 9 9 8 8 8 8 8 7 7 7 7 6 6 5 5 4 4 3 3 2 1 1 0 -0 -1 -1 -1 -2 -2 -3 -3 -3 -4 -4 -5 -5 -5
11 10 10 10 9 9 9 9 8 8 8 8 7 7 7 7 6 6 5 5 4 4 3 2 2 1 1 -0 -1 -1 -2 -2 -2 -3 -3 -3 -4 -4 -4 -5 -5 -6 -6
10 10 10 9 9 9 9 8 8 8 8 7 7 7 7 6 6 5 5 4 4 3 2 2 1 1 0 -1 -1 -2 -2 -3 -3 -3 -4 -4 -4 -4 -5 -5 -5 -6 -6
10 10 9 9 9 9 8 8 8 8 7 7 7 6 6 6 5 5 4 4 3 2 2 1 1 0 -1 -1 -2 -2 -3 -3 -3 -3 -4 -5 -5 -5 -5 -5 -6 -6 -7
10 9 9 9 9 8 8 8 7 7 7 7 6 6 6 5 5 4 4 3 3 2 1 1 0 -0 -1 -2 -2 -3 -3 -4 -4 -4 -5 -6 -6 -6 -6 -6 -6 -7 -7
9 9 9 9 8 8 8 7 7 7 6 6 6 5 5 5 4 3 3 2 2 1 1 0 -0 -1 -1 -2 -3 -3 -4 -5 -5 -6 -6 -7 -7 -7 -8 -7 -7 -7 -7
Wind_Speed
6 7 8 10 10 10 9 6 5 5 5 4 4 5 5 6 8 11 11 10 8 7 7 8 8 9 10 10 11 11 11 12 12 12 13 13 13 14 14 14 15 15 15
8 6 6 7 8 9 9 6 5 4 4 4 3 4 4 5 6 10 11 10 8 7 7 7 7 8 9 9 9 10 10 11 11 12 12 13 13 14 14 15 15 15 15
12 8 5 5 7 10 9 5 6 5 3 3 2 4 4 4 4 7 10 10 9 8 7 6 6 7 7 8 8 9 9 10 11 11 12 12 13 14 14 15 15 15 15
15 9 5 5 9 10 7 4 3 3 3 2 2 2 3 3 3 5 6 8 9 8 7 5 5 5 6 6 7 8 8 9 10 11 12 12 13 14 14 15 15 16 16
16 10 6 7 11 7 4 4 3 3 3 3 3 2 1 2 2 3 4 6 7 8 7 5 4 3 3 5 6 7 8 9 10 11 12 12 13 14 14 15 15 16 16
16 12 7 8 10 5 5 5 4 3 3 4 3 2 1 2 2 2 3 5 6 6 6 5 5 3 0 2 4 6 7 9 10 11 11 12 13 14 15 15 16 16 17
15 11 6 7 7 6 7 7 5 5 3 3 2 0 1 2 2 2 3 4 5 6 5 5 4 4 3 1 2 5 7 8 10 11 12 13 14 14 15 16 17 17 18
15 12 9 8 7 7 8 7 6 4 3 4 3 2 1 2 3 3 2 3 3 5 5 5 4 4 3 3 2 3 6 8 10 11 12 13 15 15 16 17 17 18 19
15 13 10 8 8 8 8 8 8 7 5 4 3 4 3 3 2 2 4 4 4 3 4 6 6 6 5 4 3 3 5 8 10 12 13 14 15 16 17 18 18 19 20
13 14 12 10 9 8 8 8 8 6 7 5 3 2 2 3 3 1 3 3 5 5 5 5 6 7 7 6 5 5 5 8 10 12 14 15 16 17 18 19 19 20 21
12 13 13 11 10 9 9 9 8 8 6 6 5 3 2 1 2 3 3 3 3 4 4 5 6 7 8 7 6 6 6 8 11 13 14 16 16 18 19 20 20 21 21
10 13 12 11 11 9 10 10 9 10 8 7 5 4 4 3 3 3 3 3 3 4 4 3 4 6 8 8 7 7 8 9 12 14 15 16 17 18 19 20 21 21 22
11 15 13 12 11 10 10 9 9 9 9 8 7 5 5 4 3 4 3 2 2 2 2 3 4 6 7 7 7 8 9 10 13 14 16 17 18 19 20 20 21 22 22
12 13 14 13 12 11 10 10 8 8 8 8 8 7 4 4 4 4 4 3 1 2 2 4 2 5 6 7 8 8 9 11 13 15 17 18 18 19 20 21 22 22 23
11 13 14 13 13 12 12 11 8 9 9 8 8 8 5 4 4 4 3 4 4 3 4 4 2 3 5 6 7 7 8 11 14 16 17 18 19 20 20 21 22 22 23
12 13 13 13 13 12 12 11 9 9 9 8 6 7 6 4 4 4 3 3 3 4 4 3 2 2 2 4 6 7 8 12 14 16 18 19 19 19 20 21 22 22 23
13 14 14 14 14 13 12 12 10 10 11 9 8 9 8 6 5 4 3 3 3 3 4 4 2 1 1 2 4 7 9 9 11 15 17 18 19 19 20 21 22 23 23
13 14 14 13 13 13 13 13 12 11 11 11 9 9 8 6 6 5 4 4 4 4 4 4 3 1 2 3 3 4 6 9 10 14 17 18 18 19 20 21 22 22 22
12 13 13 13 13 13 13 12 12 11 11 10 10 10 9 8 7 5 5 5 4 3 2 2 3 2 2 2 3 4 5 5 9 13 15 16 17 19 20 21 21 21 21
12 13 13 13 12 12 12 11 11 10 9 9 9 9 9 9 9 7 6 5 3 3 2 2 3 3 3 3 2 3 5 4 6 9 12 13 16 18 19 21 21 20 20
12 12 12 12 11 11 10 11 10 10 9 8 7 7 7 8 9 7 6 5 5 3 2 2 3 2 3 3 3 3 5 5 5 4 4 7 9 9 13 17 19 19 19
12 12 12 12 11 9 13 15 12 9 9 9 8 7 7 8 8 8 8 7 6 5 4 3 3 3 4 3 3 3 4 4 5 3 4 6 5 6 8 12 16 19 19
12 12 12 12 11 11 15 15 14 9 8 8 8 7 5 5 7 5 5 5 5 5 5 3 3 4 3 3 3 3 3 4 5 5 5 6 5 6 8 14 19 19 19
12 11 11 11 10 11 15 15 14 9 7 7 7 7 7 6 5 5 4 3 3 3 3 3 3 4 3 2 2 2 3 4 5 5 3 5 5 5 8 11 16 18 19
11 10 11 11 11 11 15 16 14 8 6 6 6 6 7 6 7 7 5 4 3 2 3 4 4 4 5 6 5 2 3 4 6 5 2 3 4 7 6 5 10 16 20
10 10 10 10 11 10 14 15 13 7 7 6 5 5 7 7 8 8 6 5 4 3 2 1 2 3 3 4 5 1 1 3 4 4 2 3 4 5 5 4 5 11 15
Wind_Direction
154 159 162 163 169 163 164 185 173 139 120 103 88 83 83 86 95 107 102 90 78 68 65 63 56 51 46 42 37 33 29 25 23 20 17 14 11 9 6 5 3 0 358
163 163 157 160 166 158 165 179 143 129 118 106 94 89 85 88 102 117 121 107 94 81 71 64 54 49 44 38 34 29 25 21 19 15 13 10 6 3 1 359 357 355 353
168 167 155 157 161 159 163 159 131 122 112 111 110 95 86 81 90 118 131 129 118 102 84 69 55 50 41 34 29 24 20 16 12 9 6 3 0 357 354 353 352 350 348
170 167 152 159 160 157 155 138 136 131 132 137 114 97 99 98 86 103 121 133 132 124 111 92 71 51 36 28 21 16 13 9 5 2 358 356 353 350 348 347 345 344 343
171 164 155 162 158 150 149 152 149 146 145 130 119 117 114 126 130 136 130 128 128 130 133 129 112 73 34 17 9 6 3 0 357 354 351 348 346 344 342 340 340 338 337
172 166 160 164 157 150 157 156 153 146 136 136 124 119 144 159 171 166 153 144 148 154 156 161 163 162 122 357 355 353 351 350 348 346 343 341 339 338 335 334 333 332 330
174 168 163 165 159 163 167 165 154 146 145 132 109 94 293 231 197 183 172 164 166 170 177 186 184 184 187 241 328 337 338 338 338 338 336 335 333 331 330 329 328 327 327
177 176 168 170 165 166 171 173 156 150 161 155 152 145 194 294 275 216 194 186 183 180 190 199 202 206 201 194 232 301 320 325 329 331 331 331 329 327 326 326 326 325 324
180 179 175 170 172 171 177 178 167 160 167 185 185 161 168 211 228 246 223 204 200 202 203 202 206 212 217 208 215 259 298 311 319 324 325 325 324 323 323 324 323 322 321
182 181 180 177 176 176 177 180 174 169 162 177 203 209 185 162 153 220 268 234 216 215 214 204 202 209 215 218 221 241 281 301 310 316 319 320 320 320 321 321 320 320 319
186 184 183 183 182 182 181 180 175 176 173 170 172 174 198 209 182 165 226 250 248 235 219 209 200 204 209 214 222 236 270 291 302 309 313 315 317 318 318 318 318 317 316
191 189 186 188 187 184 184 181 178 179 181 175 173 167 164 173 197 188 208 225 236 244 229 212 200 203 209 215 226 241 264 284 297 304 307 310 313 314 315 315 315 315 314
193 195 191 191 190 185 180 176 178 182 181 179 178 182 180 185 174 173 182 218 233 250 227 230 216 206 213 217 229 244 261 281 292 299 303 306 309 310 312 312 313 313 313
193 190 190 190 188 183 180 178 180 182 182 182 183 177 180 188 180 175 173 170 223 269 246 248 236 205 213 222 237 244 258 280 290 297 302 305 307 309 310 311 311 311 312
186 184 187 188 187 183 182 178 183 183 181 185 184 181 180 184 180 178 169 162 169 218 250 244 230 225 217 229 248 253 262 283 293 297 300 303 306 308 309 310 311 311 311
179 180 184 187 185 182 181 181 181 179 179 182 178 180 182 175 172 174 178 178 173 186 233 243 233 242 224 252 267 275 280 292 296 299 301 303 305 306 309 310 310 310 311
177 179 183 184 185 184 182 184 184 178 180 181 179 182 184 171 171 179 177 182 191 184 227 264 258 273 262 268 284 280 285 289 295 301 303 304 305 307 308 309 310 311 311
178 178 179 182 184 182 183 185 184 180 181 183 182 179 181 173 176 180 181 193 202 199 205 250 275 277 266 268 274 281 290 293 294 300 304 307 308 310 312 312 313 313 314
176 174 174 179 181 180 182 184 183 181 181 182 180 180 180 174 182 182 185 194 203 206 198 226 268 282 285 290 295 296 297 293 298 302 304 308 311 314 315 315 316 317 318
173 172 173 176 177 177 178 178 178 177 178 177 177 179 179 180 185 183 188 193 188 193 204 230 264 282 287 297 304 295 301 294 299 299 301 308 312 315 315 316 317 318 319
170 169 169 170 171 172 176 173 172 171 173 173 173 176 178 179 182 182 187 188 182 189 202 230 257 281 286 303 290 284 294 300 297 289 310 310 309 306 309 313 316 317 319
165 164 167 169 170 171 168 168 168 169 172 173 172 171 173 175 183 189 194 191 187 191 203 210 235 255 268 276 284 297 301 316 309 305 317 305 305 301 302 305 313 319 322
160 161 164 165 166 164 162 165 165 165 166 169 169 169 168 172 173 177 189 194 208 218 210 206 226 244 257 261 276 290 292 293 286 295 315 298 299 300 303 312 317 320 323
161 162 162 161 160 162 162 162 159 159 159 164 167 168 166 167 176 173 170 176 195 211 221 215 221 239 255 262 258 278 292 303 295 296 302 292 302 304 310 309 314 322 327
155 157 160 159 158 159 160 159 155 158 156 155 153 154 160 168 179 172 163 173 194 236 254 254 263 278 297 308 320 351 336 327 312 306 292 288 307 317 304 295 313 328 330
148 147 149 154 155 156 159 158 155 156 154 151 145 151 160 166 173 171 170 177 199 217 203 243 283 297 310 315 322 317 270 302 309 304 319 329 311 331 316 296 313 321 321
Height
1527 1529 1532 1534 1536 1538 1540 1542 1543 1545 1545 1546 1547 1547 1547 1547 1547 1547 1547 1547 1546 1546 1546 1545 1545 1544 1543 1542 1541 1539 1538 1537 1535 1534 1532 1530 1529 1527 1525 1524 1522 1520 1518
1526 1529 1531 1533 1536 1538 1539 1541 1543 1544 1545 1546 1546 1547 1547 1547 1547 1547 1547 1546 1546 1546 1545 1545 1544 1544 1543 1542 1540 1539 1538 1536 1535 1533 1531 1530 1528 1526 1524 1522 1521 1519 1517
1524 1527 1530 1532 1535 1537 1539 1541 1542 1543 1544 1545 1546 1546 1547 1547 1547 1547 1546 1546 1546 1545 1545 1544 1544 1543 1542 1541 1540 1538 1537 1535 1534 1532 1530 1529 1527 1525 1523 1521 1519 1517 1515
1523 1525 1528 1530 1533 1535 1537 1539 1541 1542 1543 1544 1545 1545 1546 1546 1546 1546 1546 1545 1545 1544 1544 1544 1543 1542 1542 1540 1539 1538 1536 1534 1533 1531 1529 1527 1525 1523 1521 1519 1517 1515 1513
1520 1523 1526 1528 1531 1534 1536 1538 1539 1541 1542 1543 1544 1544 1545 1545 1545 1545 1545 1545 1544 1544 1543 1543 1542 1542 1541 1539 1538 1537 1535 1533 1531 1530 1528 1526 1523 1521 1519 1517 1515 1513 1511
1517 1520 1523 1526 1529 1531 1533 1535 1537 1539 1540 1541 1542 1543 1543 1544 1544 1544 1544 1543 1543 1543 1542 1542 1541 1540 1539 1538 1537 1535 1534 1532 1530 1528 1526 1523 1521 1519 1517 1515 1512 1510 1508
1514 1517 1520 1523 1525 1528 1530 1533 1535 1537 1538 1539 1541 1541 1542 1542 1542 1542 1542 1542 1541 1541 1541 1540 1539 1538 1537 1536 1535 1533 1532 1530 1528 1525 1523 1521 1519 1516 1514 1512 1509 1507 1505
1510 1513 1516 1519 1522 1525 1527 1530 1532 1534 1535 1537 1538 1539 1540 1541 1540 1540 1540 1540 1540 1539 1539 1538 1537 1536 1535 1534 1533 1531 1529 1528 1525 1523 1521 1518 1516 1513 1511 1508 1506 1503 1501
1506 1509 1512 1515 1518 1521 1523 1526 1528 1530 1532 1534 1536 1537 1537 1537 1537 1538 1537 1538 1537 1537 1536 1536 1535 1534 1533 1531 1530 1528 1527 1525 1522 1520 1518 1515 1512 1510 1507 1505 1502 1499 1496
1501 1505 1508 1511 1514 1517 1519 1522 1524 1526 1529 1530 1532 1534 1535 1535 1535 1535 1535 1535 1535 1534 1534 1533 1532 1531 1530 1529 1527 1526 1524 1522 1519 1517 1514 1511 1509 1506 1503 1500 1497 1494 1491
1496 1499 1503 1506 1509 1512 1515 1518 1520 1523 1524 1526 1528 1530 1531 1532 1532 1532 1532 1532 1532 1532 1531 1530 1529 1528 1527 1526 1524 1522 1520 1518 1516 1513 1510 1507 1504 1501 1499 1495 1492 1489 1486
1490 1494 1497 1501 1504 1507 1510 1513 1516 1518 1521 1522 1524 1526 1527 1528 1528 1529 1529 1528 1528 1528 1528 1527 1526 1525 1524 1522 1520 1519 1517 1514 1512 1509 1506 1503 1500 1496 1493 1490 1487 1483 1480
1482 1486 1490 1494 1498 1501 1505 1508 1511 1513 1516 1518 1519 1521 1523 1524 1525 1525 1525 1525 1524 1524 1524 1523 1522 1521 1520 1518 1517 1515 1513 1510 1507 1505 1501 1498 1495 1491 1488 1484 1481 1478 1474
1475 1480 1484 1488 1492 1496 1499 1503 1506 1508 1511 1513 1515 1517 1518 1520 1521 1521 1522 1522 1520 1520 1519 1519 1518 1517 1516 1515 1513 1511 1508 1506 1503 1500 1497 1493 1490 1486 1483 1479 1475 1472 1468
1470 1475 1479 1483 1487 1490 1494 1497 1500 1503 1506 1508 1510 1512 1514 1515 1516 1517 1518 1518 1518 1516 1514 1514 1514 1513 1512 1510 1508 1506 1503 1501 1498 1495 1492 1488 1485 1481 1477 1473 1470 1466 1462
1464 1468 1473 1477 1481 1485 1488 1492 1495 1498 1501 1503 1506 1508 1509 1510 1512 1513 1513 1514 1513 1513 1510 1509 1509 1509 1507 1505 1503 1501 1498 1496 1492 1489 1486 1483 1479 1476 1472 1468 1464 1460 1456
1459 1462 1466 1471 1475 1478 1482 1486 1489 1492 1495 1498 1500 1502 1504 1506 1507 1508 1508 1509 1509 1508 1506 1505 1505 1503 1502 1500 1498 1496 1493 1490 1487 1484 1480 1477 1474 1470 1466 1462 1458 1454 1451
1453 1457 1461 1465 1469 1473 1477 1480 1483 1487 1489 1492 1495 1497 1499 1501 1502 1503 1503 1503 1504 1503 1502 1500 1499 1498 1497 1495 1492 1490 1488 1485 1481 1478 1475 1472 1468 1465 1461 1457 1453 1449 1445
1447 1451 1455 1459 1463 1467 1471 1475 1478 1481 1484 1487 1490 1492 1494 1495 1496 1498 1498 1498 1498 1498 1497 1495 1494 1493 1491 1490 1487 1484 1482 1479 1476 1473 1469 1466 1463 1459 1455 1451 1447 1443 1439
1442 1446 1449 1453 1458 1462 1466 1470 1473 1477 1480 1483 1485 1487 1489 1490 1492 1493 1493 1493 1493 1493 1492 1490 1489 1487 1486 1484 1482 1479 1475 1473 1470 1467 1464 1461 1457 1453 1450 1446 1442 1438 1434
1436 1441 1445 1449 1453 1457 1461 1465 1469 1472 1475 1478 1480 1482 1484 1486 1487 1488 1488 1488 1488 1488 1487 1485 1484 1482 1481 1479 1477 1474 1470 1467 1464 1461 1458 1455 1452 1448 1444 1440 1436 1433 1429
1432 1436 1440 1444 1448 1452 1456 1460 1464 1468 1471 1473 1475 1478 1479 1481 1482 1483 1484 1484 1484 1483 1482 1481 1479 1478 1476 1475 1472 1470 1467 1462 1458 1457 1453 1449 1447 1442 1439 1435 1432 1428 1425
1426 1431 1435 1440 1444 1448 1452 1456 1460 1463 1466 1469 1471 1473 1475 1476 1477 1478 1479 1479 1479 1478 1478 1477 1475 1474 1472 1471 1468 1466 1463 1459 1456 1452 1448 1443 1441 1437 1434 1431 1427 1424 1420
1422 1427 1431 1435 1440 1444 1448 1452 1456 1459 1462 1465 1467 1468 1470 1472 1473 1473 1474 1474 1474 1473 1473 1472 1471 1470 1469 1467 1465 1462 1459 1455 1452 1449 1445 1440 1435 1432 1429 1426 1423 1420 1416
1418 1423 1427 1432 1436 1440 1444 1448 1452 1455 1458 1460 1462 1464 1466 1467 1468 1469 1469 1469 1469 1469 1469 1468 1467 1466 1465 1463 1461 1458 1455 1451 1447 1444 1441 1437 1432 1427 1423 1421 1418 1415 1411
1414 1419 1424 1429 1433 1437 1441 1445 1448 1451 1454 1456 1458 1460 1462 1463 1464 1464 1464 1465 1464 1464 1464 1463 1463 1462 1460 1459 1457 1455 1452 1448 1444 1440 1437 1434 1430 1425 1419 1415 1414 1411 1407